Regional Weather Roundup
Issued by NWS State College, PA

Home | Current Version | Previous Version | Text Only | Print | Product List | Glossary On
Versions: 1 2 3 4 5 6 7 8 9 10 11 12 13 14 15 16 17 18 19 20 21 22 23 24 25 26 27 28 29 30 31 32 33 34 35 36 37 38 39 40 41 42 43 44 45 46 47 48 49 50
000
ASUS41 KCTP 030210
RWRCTP

REGIONAL WEATHER ROUNDUP
NATIONAL WEATHER SERVICE STATE COLLEGE PA
900 PM EST MON MAR 02 2015

Note: "fair" indicates few or no clouds below 12,000 feet with no
significant weather and/or obstructions to visibility.

* = STATION THAT DOES NOT REPORT PRECIPITATION /E.G. RAIN...SNOW...ETC/
    THUNDER OR FOG.

PAZ002>004-007>009-013>016-020>023-029>032-030300-
WESTERN PENNSYLVANIA

CITY           SKY/WX    TMP DP  RH WIND       PRES   REMARKS
ERIE           PTCLDY    15  10  80 CALM      30.43F
MEADVILLE        N/A     17   7  64 CALM      30.38S
FRANKLIN*      PTCLDY    16   7  67 CALM      30.39S
NEW CASTLE     FAIR      18   8  64 CALM      30.42F
BEAVER COUNTY  CLEAR     21  12  68 CALM      30.40S
BUTLER*        FAIR      18  10  73 CALM      30.41F
PITTSBURGH INT FAIR      22  13  68 W3        30.40F
PITTSBURGH     CLEAR     24  10  55 W5        30.39F
INDIANA*       MOCLDY    18  16  93 CALM      30.42S
LATROBE        PTCLDY    23  14  68 CALM      30.42S
WASHINGTON CO* CLEAR     19  14  79 CALM      30.41F
$$

PAZ004>006-010>012-017>019-024>028-033>037-041-042-045-046-049>053-030300-
CENTRAL PENNSYLVANIA

CITY           SKY/WX    TMP DP  RH WIND       PRES   REMARKS
BRADFORD       FAIR      13   4  67 NW9       30.31S WCI   1
DUBOIS         CLEAR     18   7  62 NW3       30.33S
CLEARFIELD     CLEAR     21   7  54 NW6       30.35R WCI  13
JOHNSTOWN      CLEAR     19  11  70 W9        30.30S WCI   8
ALTOONA        CLEAR     22  11  62 W6        30.36R WCI  14
STATE COLLEGE  CLEAR     25   9  50 NW7       30.35R
WILLIAMSPORT   CLEAR     27   4  37 NW14G23   30.36S
SELINSGROVE    CLEAR     24  10  55 CALM      30.36S
FT INDIANTOWN  CLEAR     29  11  48 SW7       30.35R
CAPITAL CITY   FAIR      29  13  51 W10       30.37S
HARRISBURG     FAIR      27  14  58 NW10      30.37S
YORK           CLEAR     27  14  58 W5        30.38R
$$

PAZ038>040-043-044-047-048-054-055-060>062-067>071-030300-
EASTERN PENNSYLVANIA

CITY           SKY/WX    TMP DP  RH WIND       PRES   REMARKS
SCRANTON       CLEAR     25   6  44 NW18G24   30.32R WCI  11
MOUNT POCONO   CLEAR     21   4  47 NW12G23   30.21R WCI   9
ALLENTOWN      CLEAR     30   6  36 NW13G20   30.32R
QUAKERTOWN*    FAIR      28   9  43 NW3       30.32R
READING        CLEAR     28  12  51 W7        30.33S
LANCASTER      CLEAR     27  14  58 W10       30.34S
COATESVILLE    CLEAR     28  18  64 W10       30.33S
POTTSTOWN      CLEAR     28  12  51 W6        30.34R
BLUE BELL      FAIR      32  16  51 W3        30.32R
DOYLESTOWN     CLEAR     29  10  45 NW5       30.31R
WILLOW GROVE   NOT AVBL
NORTH PHILA    CLEAR     33  11  39 W6        30.35R
PHILADELPHIA   PTCLDY    32  16  51 W10       30.35R
$$



USA.gov is the U.S. government's official web portal to all federal, state and local government web resources and services.